Hourly Data Report for May 11, 2004

TORONTO CITY
ONTARIO

43°40'00.000" N
79°24'00.000" W
112.50 m
6158355
71508
XTO

Download Data

Hourly Data (May 2004)
Hourly Data Report for May 11, 2004
TIME
LST
Temp Definition
°C
Dew Point Definition
°C
Rel Hum Definition
%
Precip. Amount Definition
mm

Wind Dir Definition
10's deg

Wind Spd Definition
km/h
Visibility Definition
km
Stn Press Definition
kPa
Hmdx Definition


Wind Chill Definition


Weather Definition


00:00 19.6 17.0 85   LegendMM LegendMM LegendMM 100.31     LegendNANA
01:00 18.7 15.0 79   LegendMM LegendMM LegendMM 100.30     LegendNANA
02:00 17.8 15.2 85   LegendMM LegendMM LegendMM 100.32     LegendNANA
03:00 17.8 15.2 85   LegendMM LegendMM LegendMM 100.40     LegendNANA
04:00 17.6 14.8 84   LegendMM LegendMM LegendMM 100.46     LegendNANA
05:00 16.4 8.1 58   LegendMM LegendMM LegendMM 100.57     LegendNANA
06:00 15.4 7.0 57   LegendMM LegendMM LegendMM 100.67     LegendNANA
07:00 15.8 7.2 57   LegendMM LegendMM LegendMM 100.76     LegendNANA
08:00 17.8 8.2 53   LegendMM LegendMM LegendMM 100.82     LegendNANA
09:00 19.4 7.8 47   LegendMM LegendMM LegendMM 100.81     LegendNANA
10:00 21.3 6.9 39   LegendMM LegendMM LegendMM 100.82     LegendNANA
11:00 22.4 4.7 32   LegendMM LegendMM LegendMM 100.80     LegendNANA
12:00 23.9 5.5 30   LegendMM LegendMM LegendMM 100.74     LegendNANA
13:00 23.9 2.6 25   LegendMM LegendMM LegendMM 100.72     LegendNANA
14:00 22.1 8.6 42   LegendMM LegendMM LegendMM 100.72     LegendNANA
15:00 22.1 7.3 38   LegendMM LegendMM LegendMM 100.68     LegendNANA
16:00 22.8 6.4 35   LegendMM LegendMM LegendMM 100.65     LegendNANA
17:00 22.3 7.5 38   LegendMM LegendMM LegendMM 100.62     LegendNANA
18:00 21.8 5.9 36   LegendMM LegendMM LegendMM 100.63     LegendNANA
19:00 21.0 5.2 36   LegendMM LegendMM LegendMM 100.63     LegendNANA
20:00 19.6 6.1 41   LegendMM LegendMM LegendMM 100.65     LegendNANA
21:00 19.2 5.5 41   LegendMM LegendMM LegendMM 100.67     LegendNANA
22:00 18.7 4.3 39   LegendMM LegendMM LegendMM 100.65     LegendNANA
23:00                      

Notes on Data Quality.

Legend

  • E = Estimated
  • M = Missing
  • NA = Not Available*
  • [empty] = Indicates an unobserved value
Date modified: